Location: Peebles
(55.6412°N, 3.1714°W)
Time: 10:35:24
(UTC+01:00)

deb NNS O-4 - Pass Details

Date: 27 June 2022
Orbit: 977 x 1074 km, 89.9° (Epoch: 15 August)

Event Time Altitude Azimuth Distance (km) Brightness Sun altitude
Exits shadow 03:17:50 - 185° (S) 3,326 ? -6.9°
Reaches altitude 10° 03:18:59 10° 187° (S) 2,906 ? -6.8°
Maximum altitude 03:25:39 72° 272° (W) 1,127 ? -6.3°
Drops below altitude 10° 03:32:20 10° 357° (N) 2,904 ? -5.9°
Sets 03:34:54 0° 359° (N) 3,852 ? -5.7°
